Home > Weather > Wiehl > Past weeks

Flag for Germany Weather for the Past 2 Weeks in Wiehl, North Rhine-Westphalia, Germany

Now
37 °F

Light rain. Mostly cloudy.


Feels Like: 37 °F
Forecast: 31 / 35 °F
Wind: 1 mph from Southeast

Location: Koeln / Bonn

Current Time: Feb 14, 2016 at 3:52:50 AM

Latest Report: Feb 14, 2016 at 3:20 AM


Visibility: N/A

Pressure: 29.00 "Hg

Humidity: 100%

Dew point: 37 °F

Location of WiehlLocation

Historic Weather in Wiehl — Graph

°F

Wiehl Temperature Yesterday

Maximum temperature yesterday: 39 °F (at 12:50 PM)
Minimum temperature yesterday: 27 °F (at 4:20 AM)
Average temperature yesterday: 34 °F

High & Low Weather Summary for the Past Weeks

 TemperatureHumidityPressure
High54 °F (Feb 1, 12:20 AM)100% (Jan 30, 6:20 PM)30.30 "Hg (Jan 30, 6:20 PM)
Low27 °F (Feb 13, 4:20 AM)50% (Feb 8, 3:50 PM)28.88 "Hg (Feb 9, 3:20 PM)
Average43 °F83%29.74 "Hg
* Reported Jan 30 2:20 AM — Feb 14 2:20 AM, Wiehl, Weather by CustomWeather, © 2016

Note: Actual official high and low records may vary slightly from our data, if they occured in-between our weather recording intervals... More about our weather records

Advertising

Wiehl Weather History for the Previous 24 Hours

 ConditionsComfort  
Time TempWeatherWind HumidityBarometerVisibility
2:20 AM
Sun, Feb 14
37 °FLight rain. Passing clouds.2 mph100%29.00 "HgN/A
1:50 AM37 °FLight rain. Mostly cloudy.3 mph100%29.00 "HgN/A
1:20 AM37 °FLight rain. Overcast.5 mph100%29.00 "HgN/A
12:50 AM37 °FRain. Passing clouds.3 mph100%29.00 "HgN/A
12:20 AM37 °FLight rain. Mostly cloudy.5 mph100%29.00 "HgN/A
11:50 PM
Sat, Feb 13
37 °FLight rain. Overcast.5 mph100%29.00 "HgN/A
11:20 PM37 °FLight rain. Mostly cloudy.5 mph100%29.00 "HgN/A
10:50 PM37 °FLight rain. Mostly cloudy.6 mph100%29.00 "HgN/A
9:50 PM37 °FLight rain. Mostly cloudy.6 mph100%29.00 "HgN/A
9:20 PM37 °FLight rain. Partly cloudy.8 mph93%29.03 "HgN/A
8:50 PM37 °FLight rain. Mostly cloudy.8 mph93%29.03 "HgN/A
8:20 PM37 °FLight rain. Mostly cloudy.9 mph93%29.03 "HgN/A
7:50 PM36 °FLight rain. Mostly cloudy.9 mph100%29.03 "HgN/A
7:20 PM36 °FLight rain. Mostly cloudy.12 mph100%29.06 "HgN/A
6:50 PM36 °FLight rain. Mostly cloudy.13 mph100%29.06 "HgN/A
6:20 PM36 °FLight rain. Mostly cloudy.10 mph100%29.09 "HgN/A
5:50 PM36 °FLight rain. Mostly cloudy.9 mph100%29.09 "HgN/A
5:20 PM36 °FLight rain. More clouds than sun.9 mph100%29.09 "HgN/A
4:50 PM36 °FLight rain. More clouds than sun.8 mph100%29.12 "HgN/A
4:20 PM36 °FLight rain. More clouds than sun.9 mph100%29.12 "HgN/A
3:50 PM36 °FLight rain. More clouds than sun.9 mph93%29.15 "HgN/A
3:20 PM37 °FLight rain. More clouds than sun.9 mph93%29.15 "HgN/A
2:50 PM37 °FLight rain. More clouds than sun.10 mph93%29.15 "HgN/A
2:20 PM37 °FLight rain. More clouds than sun.14 mph87%29.18 "HgN/A
1:50 PM39 °FLight rain. Overcast.10 mph81%29.18 "HgN/A
1:20 PM39 °FBroken clouds.10 mph75%29.21 "HgN/A
12:50 PM39 °FBroken clouds.10 mph75%29.21 "HgN/A
12:20 PM37 °FPartly sunny.13 mph81%29.24 "HgN/A
11:50 AM37 °FBroken clouds.13 mph81%29.27 "HgN/A
11:20 AM37 °FPartly sunny.9 mph81%29.27 "HgN/A
10:50 AM36 °FPartly sunny.8 mph81%29.27 "HgN/A
10:20 AM34 °FPartly sunny.7 mph87%29.30 "HgN/A
9:50 AM32 °FPartly sunny.6 mph93%29.30 "HgN/A
9:20 AM32 °FSunny.6 mph93%29.33 "Hg10 mi
8:50 AM32 °FSunny.7 mph93%29.33 "Hg10 mi
8:20 AM30 °FSunny.6 mph93%29.33 "Hg10 mi
7:50 AM28 °FSunny.5 mph100%29.33 "Hg10 mi
7:20 AM28 °FClear.5 mph100%29.33 "Hg10 mi
6:50 AM27 °FClear.5 mph100%29.36 "Hg10 mi
6:20 AM27 °FClear.3 mph100%29.36 "Hg10 mi
5:50 AM27 °FClear.2 mph100%29.36 "Hg10 mi
5:20 AM27 °FClear.2 mph100%29.36 "Hg10 mi
4:20 AM27 °FClear.1 mph100%29.36 "Hg10 mi
3:20 AM28 °FFog.2 mph100%29.39 "HgN/A
Weather by CustomWeather, © 2016

See weather overviewHow to use our weather pages